SCP
0 0 0 0 0 0 0 0 0 0 0 0 1 1 0 0 0 0 0 0 0 0 0 0 0 0 0 0 0 0 0 0 0 0 0 0 0 0 0 0 0 0 0
0 0 0 0 0 0 0 0 0 0 0 0 0 0 0 0 0 0 0 0 0 0 0 0 0 0 0 0 0 0 0 0 0 0 0 0 0 0 0 0 0 0 0
0 0 0 0 0 0 0 0 0 0 0 0 0 0 0 0 0 0 0 0 0 0 0 0 0 0 0 0 0 0 0 0 0 0 0 0 0 0 0 0 0 0 0
0 0 0 0 0 0 0 0 0 0 0 0 0 0 0 0 0 0 0 0 0 0 0 0 0 0 0 0 0 0 0 0 0 0 0 0 0 0 0 0 0 0 0
0 0 0 0 0 0 0 0 0 0 0 0 0 0 0 0 0 0 0 0 0 0 0 0 0 0 0 0 0 0 0 0 0 0 0 0 0 0 0 0 0 0 0
0 0 0 0 0 0 0 0 0 0 0 0 0 0 0 0 0 0 0 0 0 0 0 0 0 0 0 0 0 0 0 0 0 0 0 0 0 0 0 0 0 0 0
0 0 0 0 0 0 0 0 0 0 0 0 0 0 0 0 0 0 0 0 0 0 0 0 0 0 0 0 0 0 0 0 0 0 0 0 0 0 0 0 0 0 0
0 0 0 0 0 0 0 0 0 0 0 0 0 0 0 0 0 0 0 0 0 0 0 0 0 0 0 0 0 0 0 0 0 0 0 0 0 0 0 0 0 0 0
0 0 0 0 0 0 0 0 0 0 0 0 0 0 0 0 0 0 0 0 0 0 0 0 0 0 0 0 0 0 0 0 0 0 0 0 0 0 0 0 0 0 0
0 0 0 0 0 0 0 0 0 0 0 0 0 0 0 0 0 0 0 0 0 0 0 0 0 0 0 0 0 0 0 0 0 0 0 0 0 0 0 0 0 0 0
0 0 0 0 0 0 0 0 0 0 0 0 0 0 0 0 0 0 0 0 0 0 0 0 0 0 0 0 0 0 0 0 0 0 0 0 0 0 0 0 0 0 0
0 0 0 0 0 0 0 0 0 0 0 0 0 0 0 0 0 0 0 0 0 0 0 0 0 0 0 0 0 0 0 0 0 0 0 0 0 0 0 0 0 0 0
0 0 0 0 0 0 0 0 0 0 0 0 0 0 0 0 0 0 0 0 0 0 0 0 0 0 0 0 0 0 0 0 0 0 0 0 0 0 0 0 0 0 0
0 0 0 0 0 0 0 0 0 0 0 0 0 0 0 0 0 0 0 0 0 0 0 0 0 0 0 0 0 0 0 0 0 0 0 0 0 0 0 0 0 0 0
0 0 0 0 0 0 0 0 0 0 0 0 0 0 0 0 0 0 0 0 0 0 0 0 0 0 0 0 0 0 0 0 0 0 0 0 0 0 0 0 0 0 0
0 0 0 0 0 0 0 0 0 0 0 0 0 0 0 0 0 0 0 0 0 0 0 0 0 0 0 0 0 0 0 0 0 0 0 0 0 0 0 0 0 0 0
0 0 0 0 0 0 0 0 0 0 0 0 0 0 0 0 0 0 0 0 0 0 0 0 0 0 0 0 0 0 0 0 0 0 0 0 0 0 0 0 0 0 0
0 0 0 0 0 0 0 0 0 0 0 0 0 0 0 0 0 0 0 0 0 0 0 0 0 0 0 0 0 0 0 0 0 0 0 0 0 0 0 0 0 0 0
0 0 0 0 0 0 0 0 0 0 0 0 0 0 0 0 0 0 0 0 0 0 0 0 0 0 0 0 0 0 0 0 0 0 0 0 0 0 0 0 0 0 0
0 0 0 0 0 0 0 0 0 0 0 0 0 0 0 0 0 0 0 0 0 0 0 0 0 0 0 0 0 0 0 0 0 0 0 0 0 0 0 0 0 0 0
0 0 0 0 0 0 0 0 0 0 0 0 0 0 0 0 0 0 0 0 0 0 0 0 0 0 0 0 0 0 0 0 0 0 0 0 0 0 0 0 0 0 0
0 0 0 0 0 0 0 0 0 0 0 0 0 0 0 0 0 0 0 0 0 0 0 0 0 0 0 0 0 0 0 0 0 0 0 0 0 0 0 0 0 0 0
0 0 0 0 0 0 0 0 0 0 0 0 0 0 0 0 0 0 0 0 0 0 0 0 0 0 0 0 0 0 0 0 0 0 0 0 0 0 0 0 0 0 0
0 0 0 0 0 0 0 0 0 0 0 0 0 0 0 0 0 0 0 0 0 0 0 0 0 0 0 0 0 0 0 0 0 0 0 0 0 0 0 0 0 0 0
0 0 0 0 0 0 0 0 0 0 0 0 0 0 0 0 0 0 0 0 0 0 0 0 0 0 0 0 0 0 0 0 0 0 0 0 0 0 0 0 0 0 0
0 0 0 0 0 0 0 0 0 0 0 0 0 0 0 0 0 0 0 0 0 0 0 0 0 0 0 0 0 0 0 0 0 0 0 0 0 0 0 0 0 0 0
Wind_Speed
5 5 5 6 6 5 5 6 5 5 5 7 7 8 8 9 10 9 9 10 11 10 9 10 10 8 7 5 5 5 4 4 4 2 1 2 3 3 3 2 2 2 3
4 4 4 4 3 3 4 5 5 5 5 5 6 7 8 8 9 10 10 10 11 12 11 11 11 8 9 7 6 6 5 4 5 4 2 2 2 3 3 2 1 1 2
4 3 3 3 2 2 3 4 4 4 4 4 5 6 7 8 8 9 10 10 11 12 12 12 11 11 10 8 8 6 5 4 3 4 3 2 1 2 2 1 1 1 1
3 3 3 3 2 3 3 3 3 3 4 4 4 5 6 7 8 9 9 10 10 10 10 11 11 12 12 11 8 8 6 5 4 4 3 2 2 2 2 2 1 1 1
3 2 3 3 2 2 2 3 3 3 3 3 3 4 4 5 6 8 9 10 10 10 9 10 10 12 13 11 9 8 8 6 5 4 4 3 3 3 3 3 2 1 0
3 3 3 3 3 2 2 2 2 2 2 2 3 4 4 4 6 9 9 9 10 10 9 9 9 10 13 14 14 13 12 10 8 6 4 5 5 5 3 3 3 2 2
4 4 3 3 3 3 3 2 2 2 2 2 3 3 4 5 6 7 9 9 9 10 9 9 7 7 11 9 11 11 10 11 11 9 7 7 6 7 7 5 4 3 3
4 4 4 4 4 3 3 2 2 2 2 2 3 3 3 4 4 5 6 8 8 8 8 9 9 8 9 10 9 7 6 6 7 6 6 6 5 6 7 6 5 3 2
4 4 4 4 4 4 3 3 3 3 3 2 2 2 1 2 3 5 6 5 6 7 7 8 9 8 12 14 10 8 6 4 5 7 7 6 8 9 8 6 5 3 2
5 5 4 3 4 4 4 3 3 3 3 3 2 1 2 2 3 4 6 4 5 5 5 7 10 10 13 14 10 9 9 6 5 5 5 6 6 7 9 6 6 4 3
5 4 4 3 3 4 4 3 3 3 3 2 2 2 2 2 2 2 5 4 5 5 4 4 6 10 11 13 11 8 9 8 6 6 5 4 4 3 3 2 3 4 4
4 4 4 4 4 3 3 4 3 2 2 1 1 2 1 1 1 1 3 4 5 5 4 4 5 10 10 11 9 10 12 10 6 6 5 4 4 3 3 3 3 3 2
4 4 4 4 3 3 3 4 3 2 1 1 1 1 2 1 1 1 1 2 4 3 4 5 6 9 9 8 11 12 10 7 6 6 5 4 3 4 4 4 4 5 5
4 4 4 4 4 4 3 2 2 2 1 1 1 1 2 2 1 1 0 2 3 4 4 6 7 7 6 7 8 7 5 5 6 6 5 4 4 4 4 3 3 3 3
5 5 4 3 3 3 3 2 2 2 2 2 2 2 2 2 3 3 2 2 2 3 4 4 3 3 3 4 4 4 4 5 5 5 5 5 5 4 4 3 3 3 3
4 4 3 3 3 2 2 4 4 3 5 5 5 4 3 3 3 3 2 2 3 7 5 4 4 4 4 5 5 5 4 5 5 5 5 5 5 5 4 3 3 3 3
5 5 3 3 3 2 2 2 4 5 5 5 4 3 2 2 2 2 1 2 5 7 4 4 4 4 4 4 5 5 4 5 5 6 5 5 5 5 5 5 4 3 3
4 6 5 3 3 3 3 2 2 3 4 3 2 2 2 2 1 1 0 2 3 3 3 4 4 4 4 5 5 5 5 5 5 5 5 5 5 5 6 5 5 4 4
4 4 3 3 3 3 3 2 2 2 3 3 2 1 1 1 1 0 1 2 3 3 3 3 3 4 4 4 5 5 5 5 6 6 6 6 5 6 5 5 5 7 5
4 7 6 3 3 3 2 2 2 2 2 2 2 2 1 1 0 0 0 1 2 2 3 3 3 3 3 4 5 5 5 5 6 5 5 5 5 5 6 7 6 6 4
4 5 7 4 3 3 3 2 2 2 2 3 2 3 3 1 1 1 1 1 1 2 2 3 3 3 4 4 5 6 6 5 6 6 5 5 5 5 5 5 6 5 5
4 3 3 3 3 3 2 2 2 2 3 3 2 2 3 2 1 1 1 1 1 1 2 2 3 3 4 5 6 6 6 6 6 6 6 6 5 5 6 6 6 6 5
3 3 3 3 3 4 3 2 2 2 3 3 2 2 2 1 1 1 1 1 1 1 1 2 3 3 3 3 4 6 7 7 7 8 7 7 6 6 6 6 7 7 6
3 4 4 3 3 3 3 3 3 3 3 3 2 2 2 2 1 1 1 1 1 1 1 2 3 4 5 4 4 4 4 6 7 7 9 8 7 6 6 7 7 7 7
4 4 4 4 4 3 3 3 3 3 3 3 3 2 2 2 1 1 1 1 1 1 1 2 3 4 5 6 5 5 8 10 10 8 7 7 8 7 7 8 7 7 7
4 4 4 4 4 3 3 3 3 3 3 3 3 3 2 2 2 2 1 1 1 1 1 2 3 4 5 5 7 9 11 12 12 12 8 7 8 7 7 7 8 8 8
Wind_Direction
273 264 264 253 240 234 227 226 230 236 230 227 220 216 212 213 206 203 207 202 203 200 196 195 194 185 185 182 175 172 177 172 191 200 163 158 169 177 175 176 186 195 209
287 276 270 257 246 236 232 229 227 229 232 234 225 219 214 214 208 202 206 205 201 199 197 193 194 182 185 182 180 179 183 180 175 185 179 172 181 180 167 169 174 183 205
302 293 292 270 254 251 243 234 225 228 233 236 230 224 221 215 212 209 205 205 200 198 194 192 191 182 187 185 181 181 182 174 168 167 174 165 153 150 139 147 155 164 208
310 302 302 288 263 260 263 249 241 234 232 233 233 232 232 220 212 209 207 202 198 196 192 190 189 186 186 182 179 180 173 165 161 161 165 156 153 147 144 167 189 189 209
330 314 300 300 289 271 269 260 243 239 239 231 229 236 244 224 212 209 203 195 194 192 189 189 189 186 183 180 175 175 171 170 168 172 173 161 166 167 185 177 185 166 185
347 331 316 316 307 295 291 286 264 258 259 251 242 243 248 233 218 214 202 193 190 189 186 185 184 183 180 178 174 174 174 176 181 182 186 187 195 188 171 167 156 151 219
342 335 331 326 317 308 302 315 310 286 281 279 269 256 251 235 221 213 199 191 187 186 181 180 178 179 175 175 172 170 176 180 180 181 185 196 191 186 170 169 176 177 193
338 337 336 335 324 329 330 330 319 309 290 277 272 266 259 233 214 203 187 188 184 181 179 179 176 176 176 168 163 167 176 185 186 184 187 191 182 172 172 169 160 126 93
336 333 329 335 334 333 330 322 317 308 296 285 276 270 278 263 230 202 179 172 173 174 174 175 174 177 172 163 164 165 166 174 161 158 153 149 148 150 145 130 135 130 144
322 321 325 330 327 320 312 307 308 302 296 297 304 304 287 275 260 205 172 159 163 167 171 176 177 176 173 166 169 170 173 172 150 137 130 124 130 143 147 156 161 153 142
307 314 319 317 311 304 310 307 305 306 305 306 320 318 302 276 274 214 181 162 167 165 173 179 181 171 172 172 173 178 173 158 151 142 132 125 120 126 134 128 142 153 155
311 312 311 310 310 315 311 308 304 307 311 322 347 350 351 331 317 233 198 177 170 167 172 176 172 170 171 171 172 164 153 144 140 138 140 146 147 144 131 114 100 90 99
306 303 303 307 304 298 295 305 314 316 318 317 347 336 331 333 322 323 207 166 166 166 161 157 160 164 166 168 162 155 149 147 146 149 157 158 149 143 128 110 92 84 70
301 299 298 302 304 301 296 293 296 307 307 311 306 305 313 311 323 11 188 153 144 141 136 139 138 148 154 151 150 151 151 157 155 155 151 140 133 136 136 132 127 114 93
297 297 300 298 300 313 321 308 291 275 268 276 269 267 267 283 284 296 287 217 178 163 140 129 130 141 144 145 144 143 147 148 143 136 140 142 143 141 136 131 128 124 116
300 300 299 299 303 307 318 328 326 301 310 306 288 275 273 274 285 289 281 235 179 155 140 146 156 162 168 166 160 154 156 156 150 146 149 151 152 150 140 136 134 134 132
294 294 292 289 288 293 301 308 324 339 337 318 303 291 293 289 285 289 253 179 166 151 141 156 167 173 173 171 166 163 162 156 150 149 151 150 148 147 145 147 146 135 128
293 292 288 278 276 275 278 277 277 294 314 324 329 310 313 310 298 294 195 122 147 149 156 167 173 174 174 171 166 160 152 149 150 150 150 150 151 153 154 156 157 152 144
289 285 280 273 273 270 271 272 271 274 282 292 310 324 337 337 324 313 131 140 164 170 169 173 172 171 170 166 162 158 155 155 156 152 152 155 158 157 157 157 156 152 140
293 291 292 280 269 272 275 271 272 275 283 280 278 278 313 345 26 230 206 165 174 180 177 177 175 167 164 165 160 158 155 154 155 151 152 156 160 160 158 156 155 154 152
291 295 295 290 270 263 262 259 259 260 266 270 270 269 275 245 229 235 237 229 200 191 183 176 174 167 165 165 161 160 158 157 158 155 154 156 158 156 153 149 146 143 140
283 283 284 280 277 270 263 253 253 257 264 261 268 279 287 287 250 245 240 249 238 209 190 178 176 172 174 175 168 163 161 159 158 157 155 153 153 148 144 141 139 139 140
289 288 286 285 282 279 280 268 260 261 269 263 259 258 263 255 241 234 232 242 232 199 183 172 168 167 171 171 169 169 168 168 165 161 156 152 151 148 146 144 144 145 147
287 284 280 279 280 270 262 262 260 262 263 259 253 249 256 248 239 235 221 212 203 182 169 169 169 167 168 165 158 160 159 153 151 155 154 151 149 146 143 142 145 148 148
284 281 279 275 271 265 261 262 262 262 264 261 249 244 240 229 225 223 208 187 180 171 172 171 163 162 166 163 157 153 150 149 147 146 146 145 143 141 141 141 142 142 142
283 281 279 275 268 260 256 255 256 258 261 260 246 232 219 214 214 206 196 184 175 173 178 174 163 163 161 157 151 149 147 147 146 145 143 141 139 138 139 137 139 139 140